User: anonymous   Login
Location: Caltech
(34.1382°N, 118.1253°W)
Time: 01:10:13
(UTC-08:00)
Language:

OAO 2 Rocket - Orbit

View from above orbital plane
View from above orbital plane
View from above satellite
View from above satellite

Ground track
Ground track

The orbit data is extracted from the following two-line orbital elements,

1 03598U 68110B   17327.83283484  .00000071  00000-0  21180-4 0  9995
2 03598  34.9919 155.7011 0048486  82.6766 277.9434 14.54341096589721
Epoch (UTC): 23 November 2017 19:59:16
Eccentricity: 0.0048486
inclination: 34.9919°
perigee height: 677 km
apogee height: 746 km
right ascension of ascending node: 155.7011°
argument of perigee: 82.6766°
revolutions per day: 14.54341096
mean anomaly at epoch: 277.9434°
orbit number at epoch: 58972

The dashed part of the orbit path shows where the satellite is in the earth's shadow,  

DLR